Weather History for KGAO - February, 2014

Change the Weather History Date:

Thursday, February 20, 2014

  Actual Average Record
Temperature  
Mean Temperature 70 °F -  
Max Temperature 80 °F - - ()
Min Temperature 60 °F - - ()
Cooling Degree Days 5    
Growing Degree Days 20 (Base 50)    
Moisture  
Dew Point 67 °F    
Average Humidity 92    
Maximum Humidity 100    
Minimum Humidity 74    
Precipitation  
Precipitation 0.00 in - - ()
Sea Level Pressure  
Sea Level Pressure 29.93 in    
Wind  
Wind Speed 13 mph (SSE)    
Max Wind Speed 25 mph    
Max Gust Speed 36 mph    
Visibility 8 miles    
Events Rain , Thunderstorm    
T = Trace of Precipitation, MM = Missing Value Source: NWS Daily Summary

Daily Weather History Graph

Daily Weather History Graph

Search for Another Location

Airport or City:

Trip Planner

Search our weather history database for the weather conditions in past years. The results will help you decide how hot, cold, wet, or windy it might be!

Date:

Astronomy

Feb. 20, 2014 Rise Set
Actual Time 6:35 AM CST 5:54 PM CST
Civil Twilight 6:11 AM CST 6:18 PM CST
Nautical Twilight 5:43 AM CST 6:46 PM CST
Astronomical Twilight 5:16 AM CST 7:13 PM CST
Moon 11:19 PM CST (2/20) 9:45 AM CST (2/20)
Length of Visible Light 12h 06m
Length of Day
11h 18m
Waning Gibbous, 70% of the Moon is Illuminated
Feb 20
Waning Gibbous
Feb 22
Last Quarter
Mar 1
New
Mar 8
First Quarter
Mar 16
Full

Hourly Weather History & Observations

Time (CST) Temp. Heat Index Dew Point Humidity Pressure Visibility Wind Dir Wind Speed Gust Speed Precip Events Conditions
12:15 AM 63.9 °F - 63.5 °F 99% 29.97 in 10.0 mi SE 11.5 mph - N/A   Clear
12:35 AM 63.9 °F - 63.5 °F 99% 29.96 in 10.0 mi SE 9.2 mph - N/A   Clear
12:55 AM 63.5 °F - 63.0 °F 98% 29.96 in 10.0 mi SE 12.7 mph - N/A   Scattered Clouds
1:15 AM 63.0 °F - 62.6 °F 99% 29.95 in 10.0 mi SE 10.4 mph - N/A   Scattered Clouds
1:35 AM 63.0 °F - 62.8 °F 99% 29.95 in 10.0 mi SE 10.4 mph - N/A   Mostly Cloudy
1:55 AM 62.6 °F - 62.2 °F 99% 29.94 in 10.0 mi SE 11.5 mph - N/A   Scattered Clouds
2:15 AM 62.6 °F - 62.2 °F 99% 29.94 in 10.0 mi SE 11.5 mph - N/A   Scattered Clouds
2:35 AM 62.2 °F - 62.1 °F 99% 29.94 in 7.0 mi SE 10.4 mph - N/A   Scattered Clouds
2:55 AM 62.2 °F - 62.2 °F 100% 29.94 in 7.0 mi SE 11.5 mph - N/A   Mostly Cloudy
3:15 AM 62.1 °F - 62.1 °F 100% 29.94 in 7.0 mi SSE 9.2 mph - N/A   Mostly Cloudy
3:35 AM 61.9 °F - 61.9 °F 100% 29.93 in 7.0 mi SE 9.2 mph - N/A   Overcast
3:55 AM 61.7 °F - 61.7 °F 100% 29.94 in 5.0 mi SE 10.4 mph - N/A   Overcast
4:15 AM 61.7 °F - 61.7 °F 100% 29.93 in 5.0 mi SSE 10.4 mph - N/A   Overcast
4:35 AM 61.3 °F - 61.3 °F 100% 29.94 in 7.0 mi SSE 9.2 mph - N/A   Overcast
4:55 AM 60.6 °F - 60.6 °F 100% 29.94 in 5.0 mi SE 9.2 mph - N/A   Scattered Clouds
5:15 AM 61.2 °F - 61.2 °F 100% 29.94 in 2.0 mi SE 6.9 mph - N/A   Overcast
5:35 AM 60.8 °F - 60.8 °F 100% 29.95 in 2.0 mi SE 10.4 mph - N/A   Overcast
5:55 AM 60.8 °F - 60.8 °F 100% 29.94 in 1.2 mi SE 8.1 mph - N/A   Overcast
6:15 AM 60.8 °F - 60.8 °F 100% 29.95 in 1.5 mi SE 8.1 mph - N/A   Overcast
6:35 AM 60.6 °F - 60.6 °F 100% 29.96 in 1.0 mi SE 8.1 mph - N/A   Overcast
6:55 AM 60.8 °F - 60.8 °F 100% 29.96 in 1.0 mi SE 10.4 mph - N/A   Overcast
7:15 AM 60.8 °F - 60.8 °F 100% 29.96 in 1.0 mi SE 9.2 mph - N/A   Overcast
7:35 AM 61.5 °F - 61.5 °F 100% 29.96 in 3.0 mi SE 8.1 mph - N/A   Overcast
7:55 AM 61.9 °F - 61.9 °F 100% 29.96 in 7.0 mi SE 11.5 mph - N/A   Mostly Cloudy
8:15 AM 61.9 °F - 61.9 °F 100% 29.97 in 2.5 mi SE 9.2 mph - N/A   Overcast
8:35 AM 62.2 °F - 62.2 °F 100% 29.97 in 4.0 mi SE 10.4 mph 16.1 mph N/A   Overcast
8:55 AM 62.6 °F - 62.6 °F 100% 29.97 in 5.0 mi SSE 11.5 mph - N/A   Overcast
9:15 AM 64.0 °F - 63.0 °F 96% 29.97 in 10.0 mi SE 12.7 mph - N/A   Overcast
9:35 AM 70.5 °F - 68.2 °F 92% 29.97 in 10.0 mi SSE 12.7 mph 19.6 mph N/A   Overcast
9:55 AM 73.8 °F - 70.0 °F 88% 29.98 in 10.0 mi SSE 13.8 mph 23.0 mph N/A   Overcast
10:15 AM 77.0 °F - 72.1 °F 85% 29.98 in 10.0 mi SSE 13.8 mph 19.6 mph N/A   Overcast
10:35 AM 76.6 °F - 71.6 °F 84% 29.98 in 10.0 mi SSE 16.1 mph 25.3 mph N/A   Overcast
10:55 AM 77.9 °F - 72.0 °F 82% 29.98 in 10.0 mi South 16.1 mph 28.8 mph N/A   Overcast
11:15 AM 78.4 °F - 71.2 °F 78% 29.97 in 10.0 mi SSE 17.3 mph 25.3 mph N/A   Mostly Cloudy
11:35 AM 78.8 °F - 71.8 °F 79% 29.97 in 10.0 mi SE 16.1 mph 25.3 mph N/A   Mostly Cloudy
11:55 AM 79.3 °F - 71.4 °F 77% 29.96 in 10.0 mi SE 21.9 mph 28.8 mph N/A   Mostly Cloudy
12:15 PM 80.4 °F 84.4 °F 71.8 °F 75% 29.95 in 10.0 mi SSE 25.3 mph 33.4 mph N/A   Scattered Clouds
12:35 PM 80.2 °F 83.9 °F 71.4 °F 74% 29.95 in 10.0 mi SSE 24.2 mph 32.2 mph N/A   Scattered Clouds
12:55 PM 80.6 °F 84.6 °F 71.8 °F 74% 29.94 in 10.0 mi SSE 23.0 mph 31.1 mph N/A   Scattered Clouds
1:15 PM 80.4 °F 84.4 °F 71.8 °F 75% 29.92 in 10.0 mi SSE 23.0 mph 35.7 mph N/A   Clear
1:35 PM 80.6 °F 84.6 °F 71.8 °F 74% 29.92 in 10.0 mi SSE 24.2 mph 33.4 mph N/A   Clear
1:55 PM 79.0 °F - 71.4 °F 78% 29.91 in 10.0 mi South 21.9 mph 32.2 mph N/A   Mostly Cloudy
2:15 PM 78.4 °F - 71.6 °F 79% 29.91 in 10.0 mi SSE 20.7 mph 28.8 mph N/A   Overcast
2:35 PM 78.1 °F - 71.6 °F 80% 29.91 in 10.0 mi South 20.7 mph 28.8 mph N/A   Mostly Cloudy
2:55 PM 77.4 °F - 71.8 °F 83% 29.92 in 10.0 mi SSE 17.3 mph 25.3 mph N/A   Overcast
3:15 PM 77.4 °F - 71.6 °F 82% 29.92 in 10.0 mi SSE 16.1 mph 25.3 mph N/A   Overcast
3:35 PM 77.2 °F - 71.6 °F 83% 29.91 in 10.0 mi SSE 19.6 mph 28.8 mph N/A   Overcast
3:55 PM 76.6 °F - 72.0 °F 85% 29.91 in 10.0 mi SSE 17.3 mph 29.9 mph N/A   Overcast
4:15 PM 76.5 °F - 72.0 °F 86% 29.90 in 10.0 mi SSE 17.3 mph 23.0 mph N/A   Overcast
4:35 PM 76.1 °F - 71.8 °F 86% 29.90 in 10.0 mi SSE 18.4 mph 23.0 mph N/A   Overcast
4:55 PM 75.7 °F - 72.0 °F 88% 29.90 in 10.0 mi SSE 16.1 mph 19.6 mph N/A   Overcast
5:15 PM 75.4 °F - 71.8 °F 89% 29.90 in 10.0 mi SSE 15.0 mph - N/A   Overcast
5:35 PM 75.0 °F - 71.8 °F 90% 29.90 in 10.0 mi South 16.1 mph 21.9 mph N/A   Overcast
5:55 PM 74.3 °F - 71.8 °F 92% 29.90 in 10.0 mi South 16.1 mph 21.9 mph N/A   Overcast
6:15 PM 73.4 °F - 71.6 °F 94% 29.90 in 10.0 mi North - - N/A   Overcast
6:35 PM 72.9 °F - 70.9 °F 93% 29.89 in 10.0 mi SSE 15.0 mph 19.6 mph N/A   Overcast
6:55 PM 71.2 °F - 69.6 °F 95% 29.89 in 7.0 mi SSE 12.7 mph 20.7 mph N/A   Overcast
7:15 PM 69.4 °F - 68.2 °F 96% 29.88 in 7.0 mi SSE 13.8 mph 23.0 mph N/A   Overcast
7:35 PM 69.8 °F - 68.2 °F 95% 29.88 in 7.0 mi SSE 12.7 mph 18.4 mph N/A   Overcast
7:55 PM 69.8 °F - 68.2 °F 95% 29.88 in 10.0 mi SSE 12.7 mph - N/A   Overcast
8:15 PM 70.0 °F - 68.4 °F 95% 29.89 in 10.0 mi SSE 15.0 mph - N/A   Overcast
8:35 PM 70.0 °F - 68.5 °F 95% 29.89 in 10.0 mi South 15.0 mph 21.9 mph N/A   Overcast
8:55 PM 70.0 °F - 68.5 °F 95% 29.88 in 10.0 mi SSE 18.4 mph 23.0 mph N/A   Overcast
9:15 PM 70.0 °F - 68.5 °F 95% 29.89 in 10.0 mi South 16.1 mph 23.0 mph N/A   Overcast
9:35 PM 70.0 °F - 68.7 °F 96% 29.88 in 10.0 mi South 19.6 mph 27.6 mph N/A   Overcast
9:55 PM 69.8 °F - 68.4 °F 95% 29.89 in 7.0 mi South 16.1 mph 24.2 mph N/A   Overcast
10:15 PM 69.8 °F - 68.4 °F 95% 29.90 in 7.0 mi South 16.1 mph 23.0 mph N/A   Overcast
10:35 PM 69.3 °F - 68.0 °F 96% 29.91 in 7.0 mi South 17.3 mph 23.0 mph N/A   Overcast
10:55 PM 68.5 °F - 67.6 °F 97% 29.91 in 7.0 mi South 12.7 mph 21.9 mph N/A   Overcast
11:15 PM 68.0 °F - 67.3 °F 98% 29.92 in 5.0 mi South 16.1 mph 21.9 mph N/A   Overcast
11:35 PM 67.3 °F - 66.9 °F 99% 29.92 in 4.0 mi South 12.7 mph 19.6 mph N/A   Overcast
11:55 PM 66.6 °F - 66.4 °F 99% 29.93 in 4.0 mi South 12.7 mph 20.7 mph N/A Rain , Thunderstorm Light Thunderstorms and Rain